Time,TemperatureF,DewpointF,PressureIn,WindDirection,WindDirectionDegrees,WindSpeedMPH,WindSpeedGustMPH,Humidity,HourlyPrecipIn,Conditions,Clouds,dailyrainin,SoftwareType,DateUTC
2013-03-08 00:00:00,32.7,28.7,30.45,WNW,302,0.0,7.0,85,0.00,,,0.00,WeatherCatV1.02B3,2013-03-08 05:00:00,
2013-03-08 00:04:00,32.7,28.7,30.45,WNW,291,1.0,4.0,85,0.00,,,0.00,WeatherCatV1.02B3,2013-03-08 05:04:00,
2013-03-08 00:05:00,32.7,28.7,30.45,West,264,4.0,5.0,85,0.00,,,0.00,WeatherCatV1.02B3,2013-03-08 05:05:00,
2013-03-08 00:10:00,32.7,28.7,30.45,West,277,0.0,1.0,85,0.00,,,0.00,WeatherCatV1.02B3,2013-03-08 05:10:00,
2013-03-08 00:15:00,32.7,28.7,30.45,West,264,1.0,3.0,85,0.00,,,0.00,WeatherCatV1.02B3,2013-03-08 05:15:00,
2013-03-08 00:20:00,32.7,28.4,30.45,WNW,298,0.0,4.0,84,0.00,,,0.00,WeatherCatV1.02B3,2013-03-08 05:20:00,
2013-03-08 00:25:00,32.6,28.3,30.45,WNW,296,3.0,4.0,84,0.00,,,0.00,WeatherCatV1.02B3,2013-03-08 05:25:00,
2013-03-08 00:30:00,32.6,28.6,30.45,WSW,248,2.0,4.0,85,0.00,,,0.00,WeatherCatV1.02B3,2013-03-08 05:30:00,
2013-03-08 00:33:00,32.5,28.5,30.45,West,264,2.0,7.0,85,0.00,,,0.00,WeatherCatV1.02B3,2013-03-08 05:33:00,
2013-03-08 00:38:00,32.5,28.5,30.45,WSW,256,0.0,2.0,85,0.00,,,0.00,WeatherCatV1.02B3,2013-03-08 05:38:00,
2013-03-08 00:43:00,32.6,28.6,30.45,WNW,303,0.0,2.0,85,0.00,,,0.00,WeatherCatV1.02B3,2013-03-08 05:43:00,
2013-03-08 00:48:00,32.5,28.2,30.45,WSW,254,3.0,3.0,84,0.00,,,0.00,WeatherCatV1.02B3,2013-03-08 05:48:00,
2013-03-08 00:53:00,32.5,28.2,30.45,WNW,298,1.0,4.0,84,0.00,,,0.00,WeatherCatV1.02B3,2013-03-08 05:53:00,
2013-03-08 00:58:00,32.5,28.2,30.45,WNW,291,0.0,3.0,84,0.00,,,0.00,WeatherCatV1.02B3,2013-03-08 05:58:00,
2013-03-08 01:03:00,32.5,28.2,30.45,WNW,296,0.0,3.0,84,0.00,,,0.00,WeatherCatV1.02B3,2013-03-08 06:03:00,
2013-03-08 01:08:00,32.5,28.2,30.45,WNW,282,1.0,4.0,84,0.00,,,0.00,WeatherCatV1.02B3,2013-03-08 06:08:00,
2013-03-08 01:13:00,32.5,28.5,30.45,West,269,4.0,7.0,85,0.00,,,0.00,WeatherCatV1.02B3,2013-03-08 06:13:00,
2013-03-08 01:18:00,32.3,28.3,30.46,West,280,2.0,2.0,85,0.00,,,0.00,WeatherCatV1.02B3,2013-03-08 06:18:00,
2013-03-08 01:23:00,32.3,28.3,30.46,West,260,2.0,4.0,85,0.00,,,0.00,WeatherCatV1.02B3,2013-03-08 06:23:00,
2013-03-08 01:28:00,32.2,28.2,30.46,WSW,254,1.0,3.0,85,0.00,,,0.00,WeatherCatV1.02B3,2013-03-08 06:28:00,
2013-03-08 01:33:00,32.2,28.2,30.46,West,279,0.0,0.0,85,0.00,,,0.00,WeatherCatV1.02B3,2013-03-08 06:33:00,
2013-03-08 01:38:00,32.2,28.2,30.46,West,274,4.0,4.0,85,0.00,,,0.00,WeatherCatV1.02B3,2013-03-08 06:38:00,
2013-03-08 01:43:00,32.1,28.1,30.46,West,274,0.0,2.0,85,0.00,,,0.00,WeatherCatV1.02B3,2013-03-08 06:43:00,
2013-03-08 01:48:00,32.2,28.2,30.46,West,275,0.0,3.0,85,0.00,,,0.00,WeatherCatV1.02B3,2013-03-08 06:48:00,
2013-03-08 01:53:00,32.2,28.2,30.46,WNW,299,0.0,1.0,85,0.00,,,0.00,WeatherCatV1.02B3,2013-03-08 06:53:00,
2013-03-08 01:58:00,32.2,28.2,30.46,West,271,1.0,2.0,85,0.00,,,0.00,WeatherCatV1.02B3,2013-03-08 06:58:00,
2013-03-08 02:03:00,32.2,28.2,30.46,NNW,333,0.0,1.0,85,0.00,,,0.00,WeatherCatV1.02B3,2013-03-08 07:03:00,
2013-03-08 02:08:00,32.2,28.2,30.46,West,264,1.0,5.0,85,0.00,,,0.00,WeatherCatV1.02B3,2013-03-08 07:08:00,
2013-03-08 02:13:00,32.2,28.2,30.46,West,277,0.0,2.0,85,0.00,,,0.00,WeatherCatV1.02B3,2013-03-08 07:13:00,
2013-03-08 02:18:00,32.2,28.2,30.46,WSW,243,3.0,4.0,85,0.00,,,0.00,WeatherCatV1.02B3,2013-03-08 07:18:00,
2013-03-08 02:23:00,32.3,28.3,30.46,WSW,257,0.0,2.0,85,0.00,,,0.00,WeatherCatV1.02B3,2013-03-08 07:23:00,
2013-03-08 02:28:00,32.3,28.3,30.46,West,259,0.0,0.0,85,0.00,,,0.00,WeatherCatV1.02B3,2013-03-08 07:28:00,
2013-03-08 02:33:00,32.4,28.4,30.46,West,267,0.0,0.0,85,0.00,,,0.00,WeatherCatV1.02B3,2013-03-08 07:33:00,
2013-03-08 02:38:00,32.4,28.4,30.46,WSW,256,2.0,3.0,85,0.00,,,0.00,WeatherCatV1.02B3,2013-03-08 07:38:00,
2013-03-08 02:43:00,32.4,28.4,30.46,WNW,300,1.0,1.0,85,0.00,,,0.00,WeatherCatV1.02B3,2013-03-08 07:43:00,
2013-03-08 02:48:00,32.4,28.4,30.46,West,260,0.0,0.0,85,0.00,,,0.00,WeatherCatV1.02B3,2013-03-08 07:48:00,
2013-03-08 02:53:00,32.4,28.4,30.46,WNW,288,0.0,6.0,85,0.00,,,0.00,WeatherCatV1.02B3,2013-03-08 07:53:00,
2013-03-08 02:58:00,32.4,28.4,30.46,WSW,249,0.0,1.0,85,0.00,,,0.00,WeatherCatV1.02B3,2013-03-08 07:58:00,
2013-03-08 03:03:00,32.4,28.4,30.46,WNW,283,1.0,5.0,85,0.00,,,0.00,WeatherCatV1.02B3,2013-03-08 08:03:00,
2013-03-08 03:08:00,32.5,28.8,30.46,WNW,302,0.0,2.0,86,0.00,,,0.00,WeatherCatV1.02B3,2013-03-08 08:08:00,
2013-03-08 03:13:00,32.4,28.7,30.46,West,268,2.0,3.0,86,0.00,,,0.00,WeatherCatV1.02B3,2013-03-08 08:13:00,
2013-03-08 03:18:00,32.4,28.7,30.46,West,261,2.0,3.0,86,0.00,,,0.00,WeatherCatV1.02B3,2013-03-08 08:18:00,
2013-03-08 03:23:00,32.4,28.7,30.46,West,269,0.0,2.0,86,0.00,,,0.00,WeatherCatV1.02B3,2013-03-08 08:23:00,
2013-03-08 03:28:00,32.4,28.7,30.46,WSW,244,2.0,4.0,86,0.00,,,0.00,WeatherCatV1.02B3,2013-03-08 08:28:00,
2013-03-08 03:33:00,32.4,28.7,30.46,WSW,248,4.0,4.0,86,0.00,,,0.00,WeatherCatV1.02B3,2013-03-08 08:33:00,
2013-03-08 03:38:00,32.3,28.6,30.46,WNW,299,1.0,2.0,86,0.00,,,0.00,WeatherCatV1.02B3,2013-03-08 08:38:00,
2013-03-08 03:43:00,32.4,28.7,30.45,WNW,291,0.0,2.0,86,0.00,,,0.00,WeatherCatV1.02B3,2013-03-08 08:43:00,
2013-03-08 03:48:00,32.4,28.7,30.46,WSW,258,1.0,3.0,86,0.00,,,0.00,WeatherCatV1.02B3,2013-03-08 08:48:00,
2013-03-08 03:53:00,32.4,29.0,30.46,West,261,0.0,0.0,87,0.00,,,0.00,WeatherCatV1.02B3,2013-03-08 08:53:00,
2013-03-08 03:58:00,32.4,29.0,30.46,WSW,244,1.0,3.0,87,0.00,,,0.00,WeatherCatV1.02B3,2013-03-08 08:58:00,
2013-03-08 04:03:00,32.4,29.0,30.46,WNW,291,1.0,2.0,87,0.00,,,0.00,WeatherCatV1.02B3,2013-03-08 09:03:00,
2013-03-08 04:08:00,32.4,29.0,30.46,West,277,0.0,0.0,87,0.00,,,0.00,WeatherCatV1.02B3,2013-03-08 09:08:00,
2013-03-08 04:13:00,32.4,29.0,30.46,WSW,255,0.0,4.0,87,0.00,,,0.00,WeatherCatV1.02B3,2013-03-08 09:13:00,
2013-03-08 04:18:00,32.4,29.0,30.46,WSW,245,1.0,3.0,87,0.00,,,0.00,WeatherCatV1.02B3,2013-03-08 09:18:00,
2013-03-08 04:23:00,32.5,29.1,30.46,WNW,287,0.0,0.0,87,0.00,,,0.00,WeatherCatV1.02B3,2013-03-08 09:23:00,
2013-03-08 04:28:00,32.5,29.1,30.46,WSW,249,0.0,3.0,87,0.00,,,0.00,WeatherCatV1.02B3,2013-03-08 09:28:00,
2013-03-08 04:33:00,32.5,29.1,30.46,West,263,0.0,2.0,87,0.00,,,0.00,WeatherCatV1.02B3,2013-03-08 09:33:00,
2013-03-08 04:38:00,32.5,29.1,30.47,West,272,0.0,1.0,87,0.00,,,0.00,WeatherCatV1.02B3,2013-03-08 09:38:00,
2013-03-08 04:43:00,32.6,29.2,30.47,WNW,288,0.0,3.0,87,0.00,,,0.00,WeatherCatV1.02B3,2013-03-08 09:43:00,
2013-03-08 04:48:00,32.6,29.2,30.47,WSW,248,0.0,2.0,87,0.00,,,0.00,WeatherCatV1.02B3,2013-03-08 09:48:00,
2013-03-08 04:53:00,32.7,29.5,30.47,West,265,0.0,2.0,88,0.00,,,0.00,WeatherCatV1.02B3,2013-03-08 09:53:00,
2013-03-08 04:58:00,32.7,29.3,30.47,West,268,0.0,2.0,87,0.00,,,0.00,WeatherCatV1.02B3,2013-03-08 09:58:00,
2013-03-08 05:03:00,32.7,29.3,30.47,West,269,0.0,1.0,87,0.00,,,0.00,WeatherCatV1.02B3,2013-03-08 10:03:00,
2013-03-08 05:08:00,32.6,29.4,30.47,West,275,1.0,2.0,88,0.00,,,0.00,WeatherCatV1.02B3,2013-03-08 10:08:00,
2013-03-08 05:13:00,32.7,29.5,30.48,WNW,303,0.0,2.0,88,0.00,,,0.00,WeatherCatV1.02B3,2013-03-08 10:13:00,
2013-03-08 05:18:00,32.6,29.4,30.48,WNW,298,0.0,2.0,88,0.00,,,0.00,WeatherCatV1.02B3,2013-03-08 10:18:00,
2013-03-08 05:23:00,32.6,29.4,30.48,West,279,1.0,2.0,88,0.00,,,0.00,WeatherCatV1.02B3,2013-03-08 10:23:00,
2013-03-08 05:28:00,32.6,29.4,30.48,WNW,303,0.0,1.0,88,0.00,,,0.00,WeatherCatV1.02B3,2013-03-08 10:28:00,
2013-03-08 05:33:00,32.6,29.4,30.48,WSW,252,0.0,0.0,88,0.00,,,0.00,WeatherCatV1.02B3,2013-03-08 10:33:00,
2013-03-08 05:38:00,32.6,29.4,30.49,WSW,246,0.0,1.0,88,0.00,,,0.00,WeatherCatV1.02B3,2013-03-08 10:38:00,
2013-03-08 05:43:00,32.6,29.4,30.49,WNW,301,0.0,0.0,88,0.00,,,0.00,WeatherCatV1.02B3,2013-03-08 10:43:00,
2013-03-08 05:48:00,32.7,29.5,30.49,WNW,300,0.0,2.0,88,0.00,,,0.00,WeatherCatV1.02B3,2013-03-08 10:48:00,
2013-03-08 05:53:00,32.7,29.5,30.49,West,277,0.0,2.0,88,0.00,,,0.00,WeatherCatV1.02B3,2013-03-08 10:53:00,
2013-03-08 05:58:00,32.7,29.8,30.49,West,264,1.0,2.0,89,0.00,,,0.00,WeatherCatV1.02B3,2013-03-08 10:58:00,
2013-03-08 06:03:00,32.8,29.9,30.50,WNW,303,0.0,3.0,89,0.00,,,0.00,WeatherCatV1.02B3,2013-03-08 11:03:00,
2013-03-08 06:08:00,32.9,30.0,30.50,WNW,303,0.0,0.0,89,0.00,,,0.00,WeatherCatV1.02B3,2013-03-08 11:08:00,
2013-03-08 06:13:00,32.9,30.0,30.50,West,273,0.0,3.0,89,0.00,,,0.00,WeatherCatV1.02B3,2013-03-08 11:13:00,
2013-03-08 06:18:00,32.9,30.0,30.50,NW,309,0.0,3.0,89,0.00,,,0.00,WeatherCatV1.02B3,2013-03-08 11:18:00,
2013-03-08 06:23:00,32.8,29.9,30.50,SW,234,2.0,3.0,89,0.00,,,0.00,WeatherCatV1.02B3,2013-03-08 11:23:00,
2013-03-08 06:28:00,32.9,30.0,30.50,NW,315,2.0,3.0,89,0.00,,,0.00,WeatherCatV1.02B3,2013-03-08 11:28:00,
2013-03-08 06:33:00,33.0,29.8,30.50,WSW,241,2.0,3.0,88,0.00,,,0.00,WeatherCatV1.02B3,2013-03-08 11:33:00,
2013-03-08 06:38:00,33.1,29.9,30.51,West,259,0.0,0.0,88,0.00,,,0.00,WeatherCatV1.02B3,2013-03-08 11:38:00,
2013-03-08 06:43:00,33.1,29.9,30.51,NNE,17,0.0,4.0,88,0.00,,,0.00,WeatherCatV1.02B3,2013-03-08 11:43:00,
2013-03-08 06:48:00,33.1,29.9,30.51,North,355,0.0,6.0,88,0.00,,,0.00,WeatherCatV1.02B3,2013-03-08 11:48:00,
2013-03-08 06:53:00,33.2,30.0,30.51,SW,217,0.0,0.0,88,0.00,,,0.00,WeatherCatV1.02B3,2013-03-08 11:53:00,
2013-03-08 06:58:00,33.2,30.0,30.51,NNW,345,0.0,4.0,88,0.00,,,0.00,WeatherCatV1.02B3,2013-03-08 11:58:00,
2013-03-08 07:03:00,33.3,30.1,30.51,NE,37,0.0,0.0,88,0.00,,,0.00,WeatherCatV1.02B3,2013-03-08 12:03:00,
2013-03-08 07:08:00,33.3,29.9,30.51,NNW,346,2.0,3.0,87,0.00,,,0.00,WeatherCatV1.02B3,2013-03-08 12:08:00,
2013-03-08 07:13:00,33.4,30.2,30.51,North,9,0.0,1.0,88,0.00,,,0.00,WeatherCatV1.02B3,2013-03-08 12:13:00,
2013-03-08 07:18:00,33.4,30.0,30.51,NE,36,0.0,0.0,87,0.00,,,0.00,WeatherCatV1.02B3,2013-03-08 12:18:00,
2013-03-08 07:23:00,33.5,30.1,30.51,NE,36,0.0,0.0,87,0.00,,,0.00,WeatherCatV1.02B3,2013-03-08 12:23:00,
2013-03-08 07:28:00,33.5,30.1,30.51,NNE,22,0.0,0.0,87,0.00,,,0.00,WeatherCatV1.02B3,2013-03-08 12:28:00,
2013-03-08 07:33:00,33.6,30.2,30.51,NNE,21,0.0,1.0,87,0.00,,,0.00,WeatherCatV1.02B3,2013-03-08 12:33:00,
2013-03-08 07:38:00,33.6,30.2,30.51,NNE,21,0.0,0.0,87,0.00,,,0.00,WeatherCatV1.02B3,2013-03-08 12:38:00,
2013-03-08 07:43:00,33.6,30.2,30.52,NNE,19,0.0,1.0,87,0.00,,,0.00,WeatherCatV1.02B3,2013-03-08 12:43:00,
2013-03-08 07:48:00,33.7,30.2,30.52,NNW,338,0.0,2.0,87,0.00,,,0.00,WeatherCatV1.02B3,2013-03-08 12:48:00,
2013-03-08 07:53:00,33.8,30.3,30.52,NNW,339,0.0,0.0,87,0.00,,,0.00,WeatherCatV1.02B3,2013-03-08 12:53:00,
2013-03-08 07:58:00,33.8,30.3,30.52,North,355,2.0,3.0,87,0.00,,,0.00,WeatherCatV1.02B3,2013-03-08 12:58:00,
2013-03-08 08:03:00,33.9,30.4,30.52,NNW,348,0.0,0.0,87,0.00,,,0.00,WeatherCatV1.02B3,2013-03-08 13:03:00,
2013-03-08 08:08:00,33.9,30.4,30.52,NNW,348,0.0,0.0,87,0.00,,,0.00,WeatherCatV1.02B3,2013-03-08 13:08:00,
2013-03-08 08:13:00,34.1,30.9,30.52,West,261,0.0,0.0,88,0.00,,,0.00,WeatherCatV1.02B3,2013-03-08 13:13:00,
2013-03-08 08:18:00,34.2,30.7,30.52,West,261,0.0,1.0,87,0.00,,,0.00,WeatherCatV1.02B3,2013-03-08 13:18:00,
2013-03-08 08:23:00,34.3,30.8,30.53,WSW,237,2.0,2.0,87,0.00,,,0.00,WeatherCatV1.02B3,2013-03-08 13:23:00,
2013-03-08 08:28:00,34.3,30.8,30.53,WSW,242,2.0,2.0,87,0.00,,,0.00,WeatherCatV1.02B3,2013-03-08 13:28:00,
2013-03-08 08:33:00,34.3,30.8,30.53,WNW,288,2.0,5.0,87,0.00,,,0.00,WeatherCatV1.02B3,2013-03-08 13:33:00,
2013-03-08 08:38:00,34.2,30.7,30.53,West,277,0.0,2.0,87,0.00,,,0.00,WeatherCatV1.02B3,2013-03-08 13:38:00,
2013-03-08 08:43:00,34.3,31.1,30.53,WNW,288,3.0,4.0,88,0.00,,,0.00,WeatherCatV1.02B3,2013-03-08 13:43:00,
2013-03-08 08:48:00,34.2,31.0,30.53,WSW,252,1.0,2.0,88,0.00,,,0.00,WeatherCatV1.02B3,2013-03-08 13:48:00,
2013-03-08 08:53:00,34.2,31.0,30.53,WNW,284,1.0,4.0,88,0.00,,,0.00,WeatherCatV1.02B3,2013-03-08 13:53:00,
2013-03-08 08:58:00,34.3,31.1,30.53,West,267,3.0,3.0,88,0.00,,,0.00,WeatherCatV1.02B3,2013-03-08 13:58:00,
2013-03-08 09:03:00,34.4,31.2,30.53,WSW,256,0.0,2.0,88,0.00,,,0.00,WeatherCatV1.02B3,2013-03-08 14:03:00,
2013-03-08 09:08:00,34.5,31.3,30.53,NW,309,0.0,3.0,88,0.00,,,0.00,WeatherCatV1.02B3,2013-03-08 14:08:00,
2013-03-08 09:13:00,34.7,31.8,30.53,West,260,0.0,0.0,89,0.00,,,0.00,WeatherCatV1.02B3,2013-03-08 14:13:00,
2013-03-08 09:18:00,34.7,31.8,30.53,WNW,290,1.0,5.0,89,0.00,,,0.00,WeatherCatV1.02B3,2013-03-08 14:18:00,
2013-03-08 09:23:00,34.7,31.8,30.53,West,263,1.0,4.0,89,0.00,,,0.00,WeatherCatV1.02B3,2013-03-08 14:23:00,
2013-03-08 09:28:00,34.8,31.9,30.53,NW,323,2.0,3.0,89,0.00,,,0.00,WeatherCatV1.02B3,2013-03-08 14:28:00,
2013-03-08 09:33:00,34.8,31.9,30.53,West,267,0.0,1.0,89,0.00,,,0.00,WeatherCatV1.02B3,2013-03-08 14:33:00,
2013-03-08 09:38:00,34.9,32.0,30.53,West,279,0.0,1.0,89,0.00,,,0.00,WeatherCatV1.02B3,2013-03-08 14:38:00,
2013-03-08 09:43:00,35.1,31.9,30.53,WNW,294,0.0,2.0,88,0.00,,,0.00,WeatherCatV1.02B3,2013-03-08 14:43:00,
2013-03-08 09:48:00,35.2,32.3,30.53,West,269,0.0,2.0,89,0.00,,,0.00,WeatherCatV1.02B3,2013-03-08 14:48:00,
2013-03-08 09:53:00,35.4,32.2,30.54,North,349,2.0,4.0,88,0.00,,,0.00,WeatherCatV1.02B3,2013-03-08 14:53:00,
2013-03-08 09:58:00,35.4,32.2,30.54,West,269,3.0,5.0,88,0.00,,,0.00,WeatherCatV1.02B3,2013-03-08 14:58:00,
2013-03-08 10:03:00,35.2,32.0,30.54,NW,312,2.0,4.0,88,0.00,,,0.00,WeatherCatV1.02B3,2013-03-08 15:03:00,
2013-03-08 10:08:00,35.1,31.9,30.54,WNW,286,2.0,3.0,88,0.00,,,0.00,WeatherCatV1.02B3,2013-03-08 15:08:00,
2013-03-08 10:13:00,35.1,31.9,30.54,NW,321,1.0,5.0,88,0.00,,,0.00,WeatherCatV1.02B3,2013-03-08 15:13:00,
2013-03-08 10:18:00,35.2,32.0,30.54,WNW,293,4.0,6.0,88,0.00,,,0.00,WeatherCatV1.02B3,2013-03-08 15:18:00,
2013-03-08 10:23:00,35.4,32.2,30.54,NW,305,0.0,4.0,88,0.00,,,0.00,WeatherCatV1.02B3,2013-03-08 15:23:00,
2013-03-08 10:28:00,35.4,32.2,30.54,NNW,340,0.0,2.0,88,0.00,,,0.00,WeatherCatV1.02B3,2013-03-08 15:28:00,
2013-03-08 10:33:00,35.4,32.2,30.54,WSW,253,0.0,5.0,88,0.00,,,0.00,WeatherCatV1.02B3,2013-03-08 15:33:00,
2013-03-08 10:38:00,35.4,32.2,30.54,NW,320,1.0,3.0,88,0.00,,,0.00,WeatherCatV1.02B3,2013-03-08 15:38:00,
2013-03-08 10:43:00,35.5,32.3,30.54,West,281,4.0,4.0,88,0.00,,,0.00,WeatherCatV1.02B3,2013-03-08 15:43:00,
2013-03-08 10:48:00,35.4,32.2,30.54,WNW,299,1.0,6.0,88,0.00,,,0.00,WeatherCatV1.02B3,2013-03-08 15:48:00,
2013-03-08 10:53:00,35.6,32.4,30.54,West,271,0.0,1.0,88,0.00,,,0.00,WeatherCatV1.02B3,2013-03-08 15:53:00,
2013-03-08 10:58:00,35.7,32.5,30.54,West,273,6.0,6.0,88,0.00,,,0.00,WeatherCatV1.02B3,2013-03-08 15:58:00,
2013-03-08 11:03:00,36.0,32.8,30.54,NW,326,0.0,2.0,88,0.00,,,0.00,WeatherCatV1.02B3,2013-03-08 16:03:00,
2013-03-08 11:08:00,36.4,33.2,30.54,West,269,0.0,4.0,88,0.00,,,0.00,WeatherCatV1.02B3,2013-03-08 16:08:00,
2013-03-08 11:13:00,36.3,32.8,30.54,West,269,0.0,3.0,87,0.00,,,0.00,WeatherCatV1.02B3,2013-03-08 16:13:00,
2013-03-08 11:18:00,36.4,32.9,30.54,WSW,243,0.0,5.0,87,0.00,,,0.00,WeatherCatV1.02B3,2013-03-08 16:18:00,
2013-03-08 11:23:00,36.3,32.8,30.54,WSW,255,1.0,3.0,87,0.00,,,0.00,WeatherCatV1.02B3,2013-03-08 16:23:00,
2013-03-08 11:28:00,36.2,32.7,30.54,NW,317,1.0,4.0,87,0.00,,,0.00,WeatherCatV1.02B3,2013-03-08 16:28:00,
2013-03-08 11:33:00,36.3,32.8,30.54,WNW,298,0.0,5.0,87,0.00,,,0.00,WeatherCatV1.02B3,2013-03-08 16:33:00,
2013-03-08 11:38:00,36.6,33.1,30.54,West,268,1.0,4.0,87,0.00,,,0.00,WeatherCatV1.02B3,2013-03-08 16:38:00,
2013-03-08 11:43:00,36.9,33.4,30.54,WSW,237,0.0,0.0,87,0.00,,,0.00,WeatherCatV1.02B3,2013-03-08 16:43:00,
2013-03-08 11:48:00,36.7,33.2,30.54,WSW,257,2.0,4.0,87,0.00,,,0.00,WeatherCatV1.02B3,2013-03-08 16:48:00,
2013-03-08 11:54:00,36.3,32.8,30.54,WNW,285,0.0,9.0,87,0.00,,,0.00,WeatherCatV1.02B3,2013-03-08 16:54:00,
2013-03-08 11:59:00,36.1,32.6,30.54,WNW,290,3.0,5.0,87,0.00,,,0.00,WeatherCatV1.02B3,2013-03-08 16:59:00,
2013-03-08 12:04:00,36.3,32.8,30.54,WSW,252,5.0,5.0,87,0.00,,,0.00,WeatherCatV1.02B3,2013-03-08 17:04:00,
2013-03-08 12:09:00,36.3,32.8,30.55,West,273,0.0,4.0,87,0.00,,,0.00,WeatherCatV1.02B3,2013-03-08 17:09:00,
2013-03-08 12:14:00,36.3,32.8,30.54,West,260,0.0,3.0,87,0.00,,,0.00,WeatherCatV1.02B3,2013-03-08 17:14:00,
2013-03-08 12:19:00,36.5,33.0,30.54,NW,310,1.0,1.0,87,0.00,,,0.00,WeatherCatV1.02B3,2013-03-08 17:19:00,
2013-03-08 12:24:00,36.9,33.4,30.54,West,268,2.0,5.0,87,0.00,,,0.00,WeatherCatV1.02B3,2013-03-08 17:24:00,
2013-03-08 12:29:00,36.7,33.2,30.54,WSW,246,4.0,7.0,87,0.00,,,0.00,WeatherCatV1.02B3,2013-03-08 17:29:00,
2013-03-08 12:34:00,36.3,32.8,30.53,NNW,342,4.0,5.0,87,0.00,,,0.00,WeatherCatV1.02B3,2013-03-08 17:34:00,
2013-03-08 12:39:00,36.3,32.8,30.53,West,273,4.0,5.0,87,0.00,,,0.00,WeatherCatV1.02B3,2013-03-08 17:39:00,
2013-03-08 12:44:00,36.5,33.0,30.53,WNW,290,4.0,6.0,87,0.00,,,0.00,WeatherCatV1.02B3,2013-03-08 17:44:00,
2013-03-08 12:49:00,36.7,33.2,30.53,WSW,244,4.0,6.0,87,0.00,,,0.00,WeatherCatV1.02B3,2013-03-08 17:49:00,
2013-03-08 12:54:00,36.9,33.4,30.53,West,267,5.0,6.0,87,0.00,,,0.00,WeatherCatV1.02B3,2013-03-08 17:54:00,
2013-03-08 12:59:00,37.0,33.5,30.52,WSW,250,7.0,7.0,87,0.00,,,0.00,WeatherCatV1.02B3,2013-03-08 17:59:00,
2013-03-08 13:04:00,37.3,33.8,30.52,WNW,292,0.0,7.0,87,0.00,,,0.00,WeatherCatV1.02B3,2013-03-08 18:04:00,
2013-03-08 13:09:00,37.4,33.6,30.52,WNW,299,3.0,9.0,86,0.00,,,0.00,WeatherCatV1.02B3,2013-03-08 18:09:00,
2013-03-08 13:14:00,37.6,33.8,30.52,WNW,297,4.0,6.0,86,0.00,,,0.00,WeatherCatV1.02B3,2013-03-08 18:14:00,
2013-03-08 13:19:00,37.6,33.8,30.52,West,275,3.0,5.0,86,0.00,,,0.00,WeatherCatV1.02B3,2013-03-08 18:19:00,
2013-03-08 13:24:00,37.6,33.5,30.52,West,273,1.0,9.0,85,0.00,,,0.00,WeatherCatV1.02B3,2013-03-08 18:24:00,
2013-03-08 13:29:00,38.0,34.2,30.52,WSW,253,3.0,6.0,86,0.00,,,0.00,WeatherCatV1.02B3,2013-03-08 18:29:00,
2013-03-08 13:34:00,38.9,35.1,30.52,NW,318,0.0,1.0,86,0.00,,,0.00,WeatherCatV1.02B3,2013-03-08 18:34:00,
2013-03-08 13:39:00,38.9,34.5,30.51,West,274,1.0,4.0,84,0.00,,,0.00,WeatherCatV1.02B3,2013-03-08 18:39:00,
2013-03-08 13:44:00,39.0,34.3,30.51,NNW,334,0.0,5.0,83,0.00,,,0.00,WeatherCatV1.02B3,2013-03-08 18:44:00,
2013-03-08 13:49:00,39.0,34.3,30.51,WNW,294,3.0,6.0,83,0.00,,,0.00,WeatherCatV1.02B3,2013-03-08 18:49:00,
2013-03-08 13:54:00,38.2,33.5,30.51,WSW,255,4.0,6.0,83,0.00,,,0.00,WeatherCatV1.02B3,2013-03-08 18:54:00,
2013-03-08 13:59:00,37.9,33.5,30.51,West,272,2.0,5.0,84,0.00,,,0.00,WeatherCatV1.02B3,2013-03-08 18:59:00,
2013-03-08 14:04:00,37.8,33.4,30.51,West,260,2.0,5.0,84,0.00,,,0.00,WeatherCatV1.02B3,2013-03-08 19:04:00,
2013-03-08 14:09:00,38.5,34.4,30.51,West,271,1.0,6.0,85,0.00,,,0.00,WeatherCatV1.02B3,2013-03-08 19:09:00,
2013-03-08 14:14:00,38.4,34.0,30.51,WNW,292,0.0,5.0,84,0.00,,,0.00,WeatherCatV1.02B3,2013-03-08 19:14:00,
2013-03-08 14:19:00,38.1,33.7,30.51,NW,321,1.0,10.0,84,0.00,,,0.00,WeatherCatV1.02B3,2013-03-08 19:19:00,
2013-03-08 14:24:00,38.1,33.7,30.51,NNW,329,4.0,6.0,84,0.00,,,0.00,WeatherCatV1.02B3,2013-03-08 19:24:00,
2013-03-08 14:29:00,38.2,34.1,30.51,WSW,241,4.0,7.0,85,0.00,,,0.00,WeatherCatV1.02B3,2013-03-08 19:29:00,
2013-03-08 14:34:00,38.1,34.0,30.51,WNW,294,3.0,4.0,85,0.00,,,0.00,WeatherCatV1.02B3,2013-03-08 19:34:00,
2013-03-08 14:39:00,38.0,33.6,30.51,West,277,2.0,6.0,84,0.00,,,0.00,WeatherCatV1.02B3,2013-03-08 19:39:00,
2013-03-08 14:44:00,37.9,33.8,30.52,WSW,254,3.0,5.0,85,0.00,,,0.00,WeatherCatV1.02B3,2013-03-08 19:44:00,
2013-03-08 14:49:00,37.8,33.7,30.51,SW,233,5.0,5.0,85,0.00,,,0.00,WeatherCatV1.02B3,2013-03-08 19:49:00,
2013-03-08 14:54:00,37.7,33.6,30.51,SW,234,1.0,6.0,85,0.00,,,0.00,WeatherCatV1.02B3,2013-03-08 19:54:00,
2013-03-08 14:59:00,38.0,33.9,30.51,WSW,255,0.0,6.0,85,0.00,,,0.00,WeatherCatV1.02B3,2013-03-08 19:59:00,
2013-03-08 15:04:00,38.2,34.1,30.51,WSW,238,5.0,6.0,85,0.00,,,0.00,WeatherCatV1.02B3,2013-03-08 20:04:00,
2013-03-08 15:09:00,37.5,33.1,30.51,WNW,291,0.0,7.0,84,0.00,,,0.00,WeatherCatV1.02B3,2013-03-08 20:09:00,
2013-03-08 15:14:00,37.5,33.4,30.51,WNW,292,1.0,6.0,85,0.00,,,0.00,WeatherCatV1.02B3,2013-03-08 20:14:00,
2013-03-08 15:19:00,37.4,33.3,30.51,West,267,4.0,7.0,85,0.00,,,0.00,WeatherCatV1.02B3,2013-03-08 20:19:00,
2013-03-08 15:24:00,37.5,33.4,30.51,WSW,250,3.0,6.0,85,0.00,,,0.00,WeatherCatV1.02B3,2013-03-08 20:24:00,
2013-03-08 15:29:00,37.6,33.5,30.51,NW,306,3.0,5.0,85,0.00,,,0.00,WeatherCatV1.02B3,2013-03-08 20:29:00,
2013-03-08 15:34:00,37.8,33.7,30.51,West,261,3.0,6.0,85,0.00,,,0.00,WeatherCatV1.02B3,2013-03-08 20:34:00,
2013-03-08 15:39:00,37.9,33.5,30.52,West,275,1.0,4.0,84,0.00,,,0.00,WeatherCatV1.02B3,2013-03-08 20:39:00,
2013-03-08 15:44:00,37.9,33.5,30.52,WSW,248,2.0,6.0,84,0.00,,,0.00,WeatherCatV1.02B3,2013-03-08 20:44:00,
2013-03-08 15:49:00,37.9,33.5,30.52,WNW,284,4.0,4.0,84,0.00,,,0.00,WeatherCatV1.02B3,2013-03-08 20:49:00,
2013-03-08 15:54:00,38.0,33.6,30.52,WNW,290,0.0,4.0,84,0.00,,,0.00,WeatherCatV1.02B3,2013-03-08 20:54:00,
2013-03-08 15:59:00,38.0,33.6,30.52,West,275,1.0,6.0,84,0.00,,,0.00,WeatherCatV1.02B3,2013-03-08 20:59:00,
2013-03-08 16:04:00,38.3,33.9,30.52,West,269,2.0,3.0,84,0.00,,,0.00,WeatherCatV1.02B3,2013-03-08 21:04:00,
2013-03-08 16:09:00,38.3,33.6,30.52,West,275,0.0,4.0,83,0.00,,,0.00,WeatherCatV1.02B3,2013-03-08 21:09:00,
2013-03-08 16:14:00,38.0,33.3,30.52,WSW,241,5.0,5.0,83,0.00,,,0.00,WeatherCatV1.02B3,2013-03-08 21:14:00,
2013-03-08 16:19:00,37.9,33.5,30.52,WSW,250,3.0,5.0,84,0.00,,,0.00,WeatherCatV1.02B3,2013-03-08 21:19:00,
2013-03-08 16:24:00,37.7,33.3,30.52,NW,319,2.0,6.0,84,0.00,,,0.00,WeatherCatV1.02B3,2013-03-08 21:24:00,
2013-03-08 16:29:00,37.5,32.8,30.52,West,280,0.0,4.0,83,0.00,,,0.00,WeatherCatV1.02B3,2013-03-08 21:29:00,
2013-03-08 16:34:00,37.3,32.9,30.52,WSW,256,2.0,8.0,84,0.00,,,0.00,WeatherCatV1.02B3,2013-03-08 21:34:00,
2013-03-08 16:39:00,37.2,32.8,30.52,West,277,0.0,0.0,84,0.00,,,0.00,WeatherCatV1.02B3,2013-03-08 21:39:00,
2013-03-08 16:44:00,37.1,32.7,30.52,West,277,0.0,5.0,84,0.00,,,0.00,WeatherCatV1.02B3,2013-03-08 21:44:00,
2013-03-08 16:49:00,37.0,32.6,30.52,WNW,284,0.0,6.0,84,0.00,,,0.00,WeatherCatV1.02B3,2013-03-08 21:49:00,
2013-03-08 16:54:00,37.1,32.7,30.52,SW,234,3.0,6.0,84,0.00,,,0.00,WeatherCatV1.02B3,2013-03-08 21:54:00,
2013-03-08 16:59:00,36.7,32.3,30.53,SW,220,5.0,5.0,84,0.00,,,0.00,WeatherCatV1.02B3,2013-03-08 21:59:00,
2013-03-08 17:04:00,36.6,32.5,30.53,SW,236,1.0,7.0,85,0.00,,,0.00,WeatherCatV1.02B3,2013-03-08 22:04:00,
2013-03-08 17:09:00,36.6,32.5,30.53,WSW,242,3.0,4.0,85,0.00,,,0.00,WeatherCatV1.02B3,2013-03-08 22:09:00,
2013-03-08 17:14:00,36.9,32.8,30.52,WSW,237,0.0,7.0,85,0.00,,,0.00,WeatherCatV1.02B3,2013-03-08 22:14:00,
2013-03-08 17:19:00,37.0,32.9,30.53,WNW,284,2.0,4.0,85,0.00,,,0.00,WeatherCatV1.02B3,2013-03-08 22:19:00,
2013-03-08 17:24:00,36.9,32.5,30.53,WSW,238,1.0,4.0,84,0.00,,,0.00,WeatherCatV1.02B3,2013-03-08 22:24:00,
2013-03-08 17:29:00,37.0,32.6,30.53,WSW,241,0.0,3.0,84,0.00,,,0.00,WeatherCatV1.02B3,2013-03-08 22:29:00,
2013-03-08 17:34:00,36.7,32.3,30.52,WSW,239,1.0,3.0,84,0.00,,,0.00,WeatherCatV1.02B3,2013-03-08 22:34:00,
2013-03-08 17:39:00,36.5,32.1,30.52,WSW,248,2.0,5.0,84,0.00,,,0.00,WeatherCatV1.02B3,2013-03-08 22:39:00,
2013-03-08 17:44:00,36.1,32.0,30.53,West,260,0.0,2.0,85,0.00,,,0.00,WeatherCatV1.02B3,2013-03-08 22:44:00,
2013-03-08 17:49:00,35.9,31.8,30.53,WSW,247,3.0,3.0,85,0.00,,,0.00,WeatherCatV1.02B3,2013-03-08 22:49:00,
2013-03-08 17:54:00,35.7,31.6,30.53,West,271,1.0,3.0,85,0.00,,,0.00,WeatherCatV1.02B3,2013-03-08 22:54:00,
2013-03-08 17:59:00,35.4,31.3,30.53,WSW,237,1.0,2.0,85,0.00,,,0.00,WeatherCatV1.02B3,2013-03-08 22:59:00,
2013-03-08 18:04:00,35.4,31.3,30.53,West,259,0.0,1.0,85,0.00,,,0.00,WeatherCatV1.02B3,2013-03-08 23:04:00,
2013-03-08 18:09:00,34.9,30.9,30.53,WSW,257,0.0,4.0,85,0.00,,,0.00,WeatherCatV1.02B3,2013-03-08 23:09:00,
2013-03-08 18:14:00,34.5,30.8,30.53,WNW,284,0.0,0.0,86,0.00,,,0.00,WeatherCatV1.02B3,2013-03-08 23:14:00,
2013-03-08 18:19:00,34.3,30.6,30.53,WSW,253,3.0,3.0,86,0.00,,,0.00,WeatherCatV1.02B3,2013-03-08 23:19:00,
2013-03-08 18:24:00,34.0,30.3,30.53,WSW,248,0.0,0.0,86,0.00,,,0.00,WeatherCatV1.02B3,2013-03-08 23:24:00,
2013-03-08 18:29:00,33.8,30.1,30.53,SW,231,0.0,1.0,86,0.00,,,0.00,WeatherCatV1.02B3,2013-03-08 23:29:00,
2013-03-08 18:34:00,33.6,30.2,30.53,WSW,244,0.0,0.0,87,0.00,,,0.00,WeatherCatV1.02B3,2013-03-08 23:34:00,
2013-03-08 18:39:00,33.4,30.0,30.53,WSW,254,0.0,3.0,87,0.00,,,0.00,WeatherCatV1.02B3,2013-03-08 23:39:00,
2013-03-08 18:44:00,33.3,29.9,30.53,WSW,241,0.0,0.0,87,0.00,,,0.00,WeatherCatV1.02B3,2013-03-08 23:44:00,
2013-03-08 18:49:00,33.2,29.8,30.53,WSW,242,0.0,1.0,87,0.00,,,0.00,WeatherCatV1.02B3,2013-03-08 23:49:00,
2013-03-08 18:54:00,33.1,29.9,30.53,West,270,2.0,4.0,88,0.00,,,0.00,WeatherCatV1.02B3,2013-03-08 23:54:00,
2013-03-08 18:59:00,33.0,29.8,30.53,WSW,245,0.0,0.0,88,0.00,,,0.00,WeatherCatV1.02B3,2013-03-08 23:59:00,
2013-03-08 19:04:00,32.9,29.7,30.53,WSW,245,0.0,0.0,88,0.00,,,0.00,WeatherCatV1.02B3,2013-03-09 00:04:00,
2013-03-08 19:09:00,32.9,29.7,30.53,SW,227,0.0,0.0,88,0.00,,,0.00,WeatherCatV1.02B3,2013-03-09 00:09:00,
2013-03-08 19:14:00,32.8,29.6,30.53,SW,226,0.0,0.0,88,0.00,,,0.00,WeatherCatV1.02B3,2013-03-09 00:14:00,
2013-03-08 19:19:00,32.7,29.5,30.53,SW,226,0.0,0.0,88,0.00,,,0.00,WeatherCatV1.02B3,2013-03-09 00:19:00,
2013-03-08 19:24:00,32.5,29.3,30.53,SW,227,0.0,0.0,88,0.00,,,0.00,WeatherCatV1.02B3,2013-03-09 00:24:00,
2013-03-08 19:29:00,32.4,29.2,30.53,SW,227,0.0,0.0,88,0.00,,,0.00,WeatherCatV1.02B3,2013-03-09 00:29:00,
2013-03-08 19:34:00,32.3,29.2,30.53,SW,227,0.0,0.0,88,0.00,,,0.00,WeatherCatV1.02B3,2013-03-09 00:34:00,
2013-03-08 19:39:00,32.3,29.4,30.53,SW,227,0.0,0.0,89,0.00,,,0.00,WeatherCatV1.02B3,2013-03-09 00:39:00,
2013-03-08 19:44:00,32.2,29.1,30.53,SW,227,0.0,0.0,88,0.00,,,0.00,WeatherCatV1.02B3,2013-03-09 00:44:00,
2013-03-08 19:49:00,32.2,29.3,30.53,SW,227,0.0,0.0,89,0.00,,,0.00,WeatherCatV1.02B3,2013-03-09 00:49:00,
2013-03-08 19:54:00,32.2,29.3,30.54,SW,226,1.0,1.0,89,0.00,,,0.00,WeatherCatV1.02B3,2013-03-09 00:54:00,
2013-03-08 19:59:00,32.2,29.3,30.54,SW,227,0.0,0.0,89,0.00,,,0.00,WeatherCatV1.02B3,2013-03-09 00:59:00,
2013-03-08 20:04:00,32.3,29.4,30.54,WSW,238,1.0,3.0,89,0.00,,,0.00,WeatherCatV1.02B3,2013-03-09 01:04:00,
2013-03-08 20:09:00,32.3,29.4,30.54,WSW,254,0.0,0.0,89,0.00,,,0.00,WeatherCatV1.02B3,2013-03-09 01:09:00,
2013-03-08 20:14:00,32.3,29.4,30.54,WSW,241,0.0,0.0,89,0.00,,,0.00,WeatherCatV1.02B3,2013-03-09 01:14:00,
2013-03-08 20:19:00,32.2,29.3,30.54,SW,234,0.0,1.0,89,0.00,,,0.00,WeatherCatV1.02B3,2013-03-09 01:19:00,
2013-03-08 20:24:00,32.2,29.3,30.54,SW,221,0.0,3.0,89,0.00,,,0.00,WeatherCatV1.02B3,2013-03-09 01:24:00,
2013-03-08 20:29:00,32.1,29.2,30.54,SW,221,2.0,2.0,89,0.00,,,0.00,WeatherCatV1.02B3,2013-03-09 01:29:00,
2013-03-08 20:34:00,32.1,29.2,30.54,SW,220,2.0,3.0,89,0.00,,,0.00,WeatherCatV1.02B3,2013-03-09 01:34:00,
2013-03-08 20:39:00,32.1,29.2,30.54,SW,227,1.0,4.0,89,0.00,,,0.00,WeatherCatV1.02B3,2013-03-09 01:39:00,
2013-03-08 20:44:00,32.1,29.2,30.53,SW,221,0.0,2.0,89,0.00,,,0.00,WeatherCatV1.02B3,2013-03-09 01:44:00,
2013-03-08 20:49:00,32.1,29.2,30.53,SW,221,0.0,0.0,89,0.00,,,0.00,WeatherCatV1.02B3,2013-03-09 01:49:00,
2013-03-08 20:54:00,32.1,29.2,30.53,West,260,0.0,1.0,89,0.00,,,0.00,WeatherCatV1.02B3,2013-03-09 01:54:00,
2013-03-08 20:59:00,32.0,29.1,30.53,West,260,0.0,0.0,89,0.00,,,0.00,WeatherCatV1.02B3,2013-03-09 01:59:00,
2013-03-08 21:04:00,31.9,29.0,30.53,West,260,0.0,0.0,89,0.00,,,0.00,WeatherCatV1.02B3,2013-03-09 02:04:00,
2013-03-08 21:09:00,31.8,28.9,30.53,West,260,0.0,0.0,89,0.00,,,0.00,WeatherCatV1.02B3,2013-03-09 02:09:00,
2013-03-08 21:14:00,31.8,28.9,30.53,West,260,0.0,0.0,89,0.00,,,0.00,WeatherCatV1.02B3,2013-03-09 02:14:00,
2013-03-08 21:19:00,31.8,28.9,30.53,West,260,0.0,0.0,89,0.00,,,0.00,WeatherCatV1.02B3,2013-03-09 02:19:00,
2013-03-08 21:24:00,31.6,28.7,30.53,West,260,0.0,0.0,89,0.00,,,0.00,WeatherCatV1.02B3,2013-03-09 02:24:00,
2013-03-08 21:29:00,31.3,28.4,30.53,West,260,0.0,0.0,89,0.00,,,0.00,WeatherCatV1.02B3,2013-03-09 02:29:00,
2013-03-08 21:34:00,31.1,28.2,30.53,West,260,0.0,0.0,89,0.00,,,0.00,WeatherCatV1.02B3,2013-03-09 02:34:00,
2013-03-08 21:39:00,30.8,27.9,30.53,West,260,0.0,0.0,89,0.00,,,0.00,WeatherCatV1.02B3,2013-03-09 02:39:00,
2013-03-08 21:44:00,30.6,27.8,30.53,West,260,0.0,0.0,89,0.00,,,0.00,WeatherCatV1.02B3,2013-03-09 02:44:00,
2013-03-08 21:49:00,30.4,27.6,30.53,West,260,0.0,0.0,89,0.00,,,0.00,WeatherCatV1.02B3,2013-03-09 02:49:00,
2013-03-08 21:54:00,30.2,27.4,30.53,West,260,0.0,0.0,89,0.00,,,0.00,WeatherCatV1.02B3,2013-03-09 02:54:00,
2013-03-08 21:59:00,30.1,27.3,30.53,West,260,0.0,0.0,89,0.00,,,0.00,WeatherCatV1.02B3,2013-03-09 02:59:00,
2013-03-08 22:04:00,30.0,27.2,30.53,West,260,0.0,0.0,89,0.00,,,0.00,WeatherCatV1.02B3,2013-03-09 03:04:00,
2013-03-08 22:09:00,29.9,27.1,30.54,West,260,0.0,0.0,89,0.00,,,0.00,WeatherCatV1.02B3,2013-03-09 03:09:00,
2013-03-08 22:14:00,29.8,27.0,30.54,West,260,0.0,0.0,89,0.00,,,0.00,WeatherCatV1.02B3,2013-03-09 03:14:00,
2013-03-08 22:19:00,29.7,26.9,30.54,West,260,0.0,0.0,89,0.00,,,0.00,WeatherCatV1.02B3,2013-03-09 03:19:00,
2013-03-08 22:24:00,29.6,27.0,30.54,West,260,0.0,0.0,90,0.00,,,0.00,WeatherCatV1.02B3,2013-03-09 03:24:00,
2013-03-08 22:29:00,29.5,26.9,30.54,West,260,0.0,0.0,90,0.00,,,0.00,WeatherCatV1.02B3,2013-03-09 03:29:00,
2013-03-08 22:34:00,29.5,26.9,30.53,West,260,0.0,0.0,90,0.00,,,0.00,WeatherCatV1.02B3,2013-03-09 03:34:00,
2013-03-08 22:39:00,29.6,27.0,30.54,West,260,0.0,0.0,90,0.00,,,0.00,WeatherCatV1.02B3,2013-03-09 03:39:00,
2013-03-08 22:44:00,29.8,27.2,30.54,West,260,0.0,0.0,90,0.00,,,0.00,WeatherCatV1.02B3,2013-03-09 03:44:00,
2013-03-08 22:49:00,29.8,27.2,30.54,West,260,0.0,0.0,90,0.00,,,0.00,WeatherCatV1.02B3,2013-03-09 03:49:00,
2013-03-08 22:54:00,29.9,27.3,30.53,West,260,0.0,0.0,90,0.00,,,0.00,WeatherCatV1.02B3,2013-03-09 03:54:00,
2013-03-08 22:59:00,29.9,27.3,30.54,West,260,0.0,0.0,90,0.00,,,0.00,WeatherCatV1.02B3,2013-03-09 03:59:00,
2013-03-08 23:04:00,29.8,27.2,30.53,West,260,0.0,0.0,90,0.00,,,0.00,WeatherCatV1.02B3,2013-03-09 04:04:00,
2013-03-08 23:09:00,29.8,27.2,30.53,West,260,0.0,0.0,90,0.00,,,0.00,WeatherCatV1.02B3,2013-03-09 04:09:00,
2013-03-08 23:14:00,29.8,27.2,30.53,West,260,0.0,0.0,90,0.00,,,0.00,WeatherCatV1.02B3,2013-03-09 04:14:00,
2013-03-08 23:19:00,29.6,27.0,30.53,West,260,0.0,0.0,90,0.00,,,0.00,WeatherCatV1.02B3,2013-03-09 04:19:00,
2013-03-08 23:24:00,29.5,26.9,30.53,West,260,0.0,0.0,90,0.00,,,0.00,WeatherCatV1.02B3,2013-03-09 04:24:00,
2013-03-08 23:29:00,29.5,27.2,30.54,West,260,0.0,0.0,91,0.00,,,0.00,WeatherCatV1.02B3,2013-03-09 04:29:00,
2013-03-08 23:34:00,29.4,27.1,30.54,West,260,0.0,0.0,91,0.00,,,0.00,WeatherCatV1.02B3,2013-03-09 04:34:00,
2013-03-08 23:39:00,29.3,26.7,30.54,West,260,0.0,0.0,90,0.00,,,0.00,WeatherCatV1.02B3,2013-03-09 04:39:00,
2013-03-08 23:44:00,29.3,26.7,30.54,West,260,0.0,0.0,90,0.00,,,0.00,WeatherCatV1.02B3,2013-03-09 04:44:00,
2013-03-08 23:49:00,29.0,26.4,30.54,West,260,0.0,0.0,90,0.00,,,0.00,WeatherCatV1.02B3,2013-03-09 04:49:00,
2013-03-08 23:54:00,29.0,26.7,30.54,West,260,0.0,0.0,91,0.00,,,0.00,WeatherCatV1.02B3,2013-03-09 04:54:00,
2013-03-08 23:59:00,29.1,26.8,30.54,West,260,0.0,0.0,91,0.00,,,0.00,WeatherCatV1.02B3,2013-03-09 04:59:00,